Location: Cassano d�Adda
(45.5333°N, 9.5167°E)
Time: 02:05:35
(UTC+00:00)

Cosmos 1666 - Pass Details

Date: 08 December 2019
Orbit: 498 x 521 km, 82.5° (Epoch: 20 January)

Event Time Altitude Azimuth Distance (km) Brightness Sun altitude
Rises 17:30:29 0° 350° (N) 2,610 6.2 -18.8°
Reaches altitude 10° 17:32:37 10° 349° (N) 1,718 5.3 -19.2°
Maximum altitude 17:36:22 80° 262° (W) 513 2.6 -19.8°
Drops below altitude 10° 17:40:05 10° 176° (S) 1,696 5.4 -20.5°
Sets 17:42:11 0° 175° (S) 2,573 6.3 -20.8°
